Time,TemperatureF,DewpointF,PressureIn,WindDirection,WindDirectionDegrees,WindSpeedMPH,WindSpeedGustMPH,Humidity,HourlyPrecipIn,Conditions,Clouds,dailyrainin,SoftwareType,DateUTC
2013-09-03 00:00:00,83.0,61.9,29.86,SW,225,0.0,0.0,49,0.00,,SKC,0.00,VWS V14.01,2013-09-03 07:00:00,
2013-09-03 00:05:00,83.0,61.3,29.86,SW,225,0.0,0.0,48,0.00,,SKC,0.00,VWS V14.01,2013-09-03 07:05:00,
2013-09-03 00:10:00,83.0,61.3,29.86,SW,225,0.0,0.0,48,0.00,,SKC,0.00,VWS V14.01,2013-09-03 07:10:00,
2013-09-03 00:15:00,83.0,61.3,29.86,SW,225,0.0,0.0,48,0.00,,SKC,0.00,VWS V14.01,2013-09-03 07:15:00,
2013-09-03 00:20:00,83.0,61.3,29.86,SW,225,0.0,0.0,48,0.00,,SKC,0.00,VWS V14.01,2013-09-03 07:20:00,
2013-09-03 00:25:00,83.0,61.3,29.86,SW,225,0.0,0.0,48,0.00,,SKC,0.00,VWS V14.01,2013-09-03 07:25:00,
2013-09-03 00:30:00,83.0,62.5,29.87,SW,225,0.0,0.0,50,0.00,,SKC,0.00,VWS V14.01,2013-09-03 07:30:00,
2013-09-03 00:35:00,82.0,62.7,29.86,SW,225,0.0,0.0,52,0.00,,SKC,0.00,VWS V14.01,2013-09-03 07:35:00,
2013-09-03 00:40:00,81.0,62.3,29.86,SW,225,0.0,0.0,53,0.00,,SKC,0.00,VWS V14.01,2013-09-03 07:40:00,
2013-09-03 00:45:00,81.0,62.3,29.86,SW,225,0.0,0.0,53,0.00,,SKC,0.00,VWS V14.01,2013-09-03 07:45:00,
2013-09-03 00:50:00,81.0,62.8,29.86,SW,225,0.0,0.0,54,0.00,,SKC,0.00,VWS V14.01,2013-09-03 07:50:00,
2013-09-03 00:55:00,81.0,62.3,29.86,SW,225,0.0,0.0,53,0.00,,SKC,0.00,VWS V14.01,2013-09-03 07:55:00,
2013-09-03 01:00:00,81.0,62.3,29.85,SW,225,0.0,0.0,53,0.00,,SKC,0.00,VWS V14.01,2013-09-03 08:00:00,
2013-09-03 01:05:00,81.0,62.3,29.85,SW,225,0.0,0.0,53,0.00,,SKC,0.00,VWS V14.01,2013-09-03 08:05:00,
2013-09-03 01:10:00,82.0,62.1,29.85,SW,225,0.0,0.0,51,0.00,,SKC,0.00,VWS V14.01,2013-09-03 08:10:00,
2013-09-03 01:15:00,82.0,62.1,29.86,SW,225,0.0,0.0,51,0.00,,SKC,0.00,VWS V14.01,2013-09-03 08:15:00,
2013-09-03 01:20:00,81.0,61.2,29.86,SW,225,0.0,0.0,51,0.00,,SKC,0.00,VWS V14.01,2013-09-03 08:20:00,
2013-09-03 01:25:00,81.0,61.2,29.86,SW,225,0.0,0.0,51,0.00,,SKC,0.00,VWS V14.01,2013-09-03 08:25:00,
2013-09-03 01:30:00,81.0,61.2,29.86,SW,225,0.0,0.0,51,0.00,,SKC,0.00,VWS V14.01,2013-09-03 08:30:00,
2013-09-03 01:35:00,81.0,60.6,29.86,SW,225,0.0,0.0,50,0.00,,SKC,0.00,VWS V14.01,2013-09-03 08:35:00,
2013-09-03 01:40:00,82.0,61.5,29.85,SW,225,0.0,0.0,50,0.00,,SKC,0.00,VWS V14.01,2013-09-03 08:40:00,
2013-09-03 01:45:00,82.0,61.0,29.85,SW,225,0.0,0.0,49,0.00,,SKC,0.00,VWS V14.01,2013-09-03 08:45:00,
2013-09-03 01:50:00,82.0,60.4,29.85,SW,225,0.0,0.0,48,0.00,,SKC,0.00,VWS V14.01,2013-09-03 08:50:00,
2013-09-03 01:55:00,82.0,61.5,29.85,SW,225,0.0,0.0,50,0.00,,SKC,0.00,VWS V14.01,2013-09-03 08:55:00,
2013-09-03 02:00:00,80.0,61.3,29.86,SW,225,0.0,0.0,53,0.00,,SKC,0.00,VWS V14.01,2013-09-03 09:00:00,
2013-09-03 02:05:00,79.0,61.5,29.86,SW,225,0.0,0.0,55,0.00,,SKC,0.00,VWS V14.01,2013-09-03 09:05:00,
2013-09-03 02:10:00,79.0,62.5,29.86,SW,225,0.0,0.0,57,0.00,,SKC,0.00,VWS V14.01,2013-09-03 09:10:00,
2013-09-03 02:15:00,78.0,61.5,29.86,SW,225,0.0,0.0,57,0.00,,SKC,0.00,VWS V14.01,2013-09-03 09:15:00,
2013-09-03 02:20:00,78.0,62.0,29.86,SW,225,0.0,0.0,58,0.00,,SKC,0.00,VWS V14.01,2013-09-03 09:20:00,
2013-09-03 02:25:00,78.0,61.5,29.86,SW,225,0.0,0.0,57,0.00,,SKC,0.00,VWS V14.01,2013-09-03 09:25:00,
2013-09-03 02:30:00,78.0,61.5,29.86,SW,225,0.0,0.0,57,0.00,,SKC,0.00,VWS V14.01,2013-09-03 09:30:00,
2013-09-03 02:35:00,78.0,61.0,29.86,SW,225,0.0,0.0,56,0.00,,SKC,0.00,VWS V14.01,2013-09-03 09:35:00,
2013-09-03 02:40:00,78.0,61.0,29.85,SW,225,0.0,0.0,56,0.00,,SKC,0.00,VWS V14.01,2013-09-03 09:40:00,
2013-09-03 02:45:00,78.0,61.5,29.85,SW,225,0.0,0.0,57,0.00,,SKC,0.00,VWS V14.01,2013-09-03 09:45:00,
2013-09-03 02:50:00,78.0,61.5,29.85,SW,225,0.0,0.0,57,0.00,,SKC,0.00,VWS V14.01,2013-09-03 09:50:00,
2013-09-03 02:55:00,78.0,61.0,29.85,SW,225,0.0,0.0,56,0.00,,SKC,0.00,VWS V14.01,2013-09-03 09:55:00,
2013-09-03 03:00:00,78.0,60.5,29.85,SW,225,0.0,0.0,55,0.00,,SKC,0.00,VWS V14.01,2013-09-03 10:00:00,
2013-09-03 03:05:00,79.0,61.5,29.85,SW,225,0.0,0.0,55,0.00,,SKC,0.00,VWS V14.01,2013-09-03 10:05:00,
2013-09-03 03:10:00,79.0,61.0,29.85,SW,225,0.0,0.0,54,0.00,,SKC,0.00,VWS V14.01,2013-09-03 10:10:00,
2013-09-03 03:15:00,80.0,60.8,29.85,SW,225,0.0,0.0,52,0.00,,SKC,0.00,VWS V14.01,2013-09-03 10:15:00,
2013-09-03 03:20:00,80.0,59.7,29.85,SW,225,0.0,0.0,50,0.00,,SKC,0.00,VWS V14.01,2013-09-03 10:20:00,
2013-09-03 03:25:00,80.0,59.7,29.85,SW,225,0.0,0.0,50,0.00,,SKC,0.00,VWS V14.01,2013-09-03 10:25:00,
2013-09-03 03:30:00,80.0,59.7,29.85,SW,225,0.0,0.0,50,0.00,,SKC,0.00,VWS V14.01,2013-09-03 10:30:00,
2013-09-03 03:35:00,80.0,61.3,29.85,SW,225,0.0,0.0,53,0.00,,SKC,0.00,VWS V14.01,2013-09-03 10:35:00,
2013-09-03 03:40:00,79.0,61.5,29.85,SW,225,0.0,0.0,55,0.00,,SKC,0.00,VWS V14.01,2013-09-03 10:40:00,
2013-09-03 03:45:00,78.0,61.5,29.85,SW,225,0.0,0.0,57,0.00,,SKC,0.00,VWS V14.01,2013-09-03 10:45:00,
2013-09-03 03:50:00,77.0,61.1,29.85,SW,225,0.0,0.0,58,0.00,,SKC,0.00,VWS V14.01,2013-09-03 10:50:00,
2013-09-03 03:55:00,76.0,60.2,29.85,SW,225,0.0,0.0,58,0.00,,SKC,0.00,VWS V14.01,2013-09-03 10:55:00,
2013-09-03 04:00:00,76.0,61.1,29.85,SW,225,0.0,0.0,60,0.00,,SKC,0.00,VWS V14.01,2013-09-03 11:00:00,
2013-09-03 04:05:00,76.0,61.1,29.85,SW,225,0.0,0.0,60,0.00,,SKC,0.00,VWS V14.01,2013-09-03 11:05:00,
2013-09-03 04:10:00,76.0,61.6,29.85,SW,225,0.0,0.0,61,0.00,,SKC,0.00,VWS V14.01,2013-09-03 11:10:00,
2013-09-03 04:15:00,76.0,61.6,29.85,SW,225,0.0,0.0,61,0.00,,SKC,0.00,VWS V14.01,2013-09-03 11:15:00,
2013-09-03 04:21:00,76.0,61.6,29.85,SW,225,0.0,0.0,61,0.00,,SKC,0.00,VWS V14.01,2013-09-03 11:21:00,
2013-09-03 04:27:00,75.0,60.7,29.85,SW,225,0.0,0.0,61,0.00,,SKC,0.00,VWS V14.01,2013-09-03 11:27:00,
2013-09-03 04:32:00,76.0,61.6,29.85,SW,225,0.0,0.0,61,0.00,,SKC,0.00,VWS V14.01,2013-09-03 11:32:00,
2013-09-03 04:38:00,76.0,61.1,29.85,SW,225,0.0,0.0,60,0.00,,SKC,0.00,VWS V14.01,2013-09-03 11:38:00,
2013-09-03 04:43:00,76.0,61.1,29.85,SW,225,0.0,0.0,60,0.00,,SKC,0.00,VWS V14.01,2013-09-03 11:43:00,
2013-09-03 04:48:00,76.0,61.1,29.85,SW,225,0.0,0.0,60,0.00,,SKC,0.00,VWS V14.01,2013-09-03 11:48:00,
2013-09-03 04:53:00,75.0,60.7,29.85,SW,225,0.0,0.0,61,0.00,,SKC,0.00,VWS V14.01,2013-09-03 11:53:00,
2013-09-03 04:58:00,75.0,61.1,29.85,SW,225,0.0,0.0,62,0.00,,SKC,0.00,VWS V14.01,2013-09-03 11:58:00,
2013-09-03 05:03:00,75.0,61.1,29.85,SW,225,0.0,0.0,62,0.00,,SKC,0.00,VWS V14.01,2013-09-03 12:03:00,
2013-09-03 05:08:00,74.0,60.6,29.86,SW,225,0.0,0.0,63,0.00,,SKC,0.00,VWS V14.01,2013-09-03 12:08:00,
2013-09-03 05:14:00,74.0,60.6,29.86,SW,225,0.0,0.0,63,0.00,,SKC,0.00,VWS V14.01,2013-09-03 12:14:00,
2013-09-03 05:19:00,74.0,60.6,29.86,SW,225,0.0,0.0,63,0.00,,SKC,0.00,VWS V14.01,2013-09-03 12:19:00,
2013-09-03 05:25:00,74.0,60.6,29.86,SW,225,0.0,0.0,63,0.00,,SKC,0.00,VWS V14.01,2013-09-03 12:25:00,
2013-09-03 05:30:00,74.0,61.1,29.86,SW,225,0.0,0.0,64,0.00,,SKC,0.00,VWS V14.01,2013-09-03 12:30:00,
2013-09-03 05:35:00,74.0,61.1,29.86,SW,225,0.0,0.0,64,0.00,,SKC,0.00,VWS V14.01,2013-09-03 12:35:00,
2013-09-03 05:40:00,74.0,61.1,29.86,SW,225,0.0,0.0,64,0.00,,SKC,0.00,VWS V14.01,2013-09-03 12:40:00,
2013-09-03 05:45:00,74.0,60.2,29.86,SW,225,0.0,0.0,62,0.00,,SKC,0.00,VWS V14.01,2013-09-03 12:45:00,
2013-09-03 05:50:00,74.0,59.7,29.87,SW,225,0.0,0.0,61,0.00,,SKC,0.00,VWS V14.01,2013-09-03 12:50:00,
2013-09-03 05:56:00,74.0,60.6,29.87,SW,225,0.0,0.0,63,0.00,,SKC,0.00,VWS V14.01,2013-09-03 12:56:00,
2013-09-03 06:02:00,74.0,60.6,29.87,SW,225,0.0,0.0,63,0.00,,SKC,0.00,VWS V14.01,2013-09-03 13:02:00,
2013-09-03 06:08:00,74.0,60.6,29.87,SW,225,0.0,0.0,63,0.00,,SKC,0.00,VWS V14.01,2013-09-03 13:08:00,
2013-09-03 06:14:00,74.0,60.6,29.87,SW,225,0.0,0.0,63,0.00,,SKC,0.00,VWS V14.01,2013-09-03 13:14:00,
2013-09-03 06:20:00,74.0,60.2,29.87,SW,225,0.0,0.0,62,0.00,,SKC,0.00,VWS V14.01,2013-09-03 13:20:00,
2013-09-03 06:26:00,74.0,59.7,29.87,SW,225,0.0,0.0,61,0.00,,SKC,0.00,VWS V14.01,2013-09-03 13:26:00,
2013-09-03 06:32:00,75.0,60.7,29.87,SW,225,0.0,0.0,61,0.00,,SKC,0.00,VWS V14.01,2013-09-03 13:32:00,
2013-09-03 06:37:00,75.0,60.7,29.87,SW,225,0.0,0.0,61,0.00,,SKC,0.00,VWS V14.01,2013-09-03 13:37:00,
2013-09-03 06:42:00,76.0,61.1,29.87,SW,225,0.0,0.0,60,0.00,,SKC,0.00,VWS V14.01,2013-09-03 13:42:00,
2013-09-03 06:48:00,77.0,61.6,29.87,SW,225,0.0,0.0,59,0.00,,SKC,0.00,VWS V14.01,2013-09-03 13:48:00,
2013-09-03 06:54:00,77.0,61.6,29.87,SW,225,0.0,0.0,59,0.00,,SKC,0.00,VWS V14.01,2013-09-03 13:54:00,
2013-09-03 07:00:00,77.0,62.1,29.87,SW,225,0.0,0.0,60,0.00,,SKC,0.00,VWS V14.01,2013-09-03 14:00:00,
2013-09-03 07:05:00,77.0,62.1,29.87,SW,225,0.0,0.0,60,0.00,,SKC,0.00,VWS V14.01,2013-09-03 14:05:00,
2013-09-03 07:10:00,77.0,61.6,29.88,SW,225,0.0,0.0,59,0.00,,SKC,0.00,VWS V14.01,2013-09-03 14:10:00,
2013-09-03 07:15:00,78.0,62.5,29.88,SW,225,0.0,0.0,59,0.00,,SKC,0.00,VWS V14.01,2013-09-03 14:15:00,
2013-09-03 07:20:00,78.0,62.5,29.88,SW,225,0.0,0.0,59,0.00,,SKC,0.00,VWS V14.01,2013-09-03 14:20:00,
2013-09-03 07:26:00,79.0,63.0,29.88,SW,225,0.0,0.0,58,0.00,,SKC,0.00,VWS V14.01,2013-09-03 14:26:00,
2013-09-03 07:31:00,78.0,62.0,29.88,SW,225,0.0,0.0,58,0.00,,SKC,0.00,VWS V14.01,2013-09-03 14:31:00,
2013-09-03 07:37:00,78.0,62.0,29.88,SW,225,0.0,0.0,58,0.00,,SKC,0.00,VWS V14.01,2013-09-03 14:37:00,
2013-09-03 07:42:00,78.0,62.0,29.88,SW,225,0.0,0.0,58,0.00,,SKC,0.00,VWS V14.01,2013-09-03 14:42:00,
2013-09-03 07:48:00,78.0,62.5,29.88,SW,225,0.0,0.0,59,0.00,,SKC,0.00,VWS V14.01,2013-09-03 14:48:00,
2013-09-03 07:54:00,79.0,63.0,29.88,SW,225,0.0,0.0,58,0.00,,SKC,0.00,VWS V14.01,2013-09-03 14:54:00,
2013-09-03 07:59:00,79.0,62.0,29.88,SW,225,0.0,0.0,56,0.00,,SKC,0.00,VWS V14.01,2013-09-03 14:59:00,
2013-09-03 08:05:00,80.0,62.4,29.88,SW,225,0.0,0.0,55,0.00,,SKC,0.00,VWS V14.01,2013-09-03 15:05:00,
2013-09-03 08:10:00,80.0,61.9,29.88,SW,225,0.0,0.0,54,0.00,,SKC,0.00,VWS V14.01,2013-09-03 15:10:00,
2013-09-03 08:15:00,81.0,62.8,29.88,SW,225,0.0,0.0,54,0.00,,SKC,0.00,VWS V14.01,2013-09-03 15:15:00,
2013-09-03 08:20:00,81.0,62.3,29.89,SW,225,0.0,0.0,53,0.00,,SKC,0.00,VWS V14.01,2013-09-03 15:20:00,
2013-09-03 08:25:00,82.0,62.7,29.89,SW,225,0.0,0.0,52,0.00,,SKC,0.00,VWS V14.01,2013-09-03 15:25:00,
2013-09-03 08:30:00,82.0,62.1,29.89,SW,225,0.0,0.0,51,0.00,,SKC,0.00,VWS V14.01,2013-09-03 15:30:00,
2013-09-03 08:35:00,82.0,61.5,29.89,SW,225,0.0,0.0,50,0.00,,SKC,0.00,VWS V14.01,2013-09-03 15:35:00,
2013-09-03 08:40:00,83.0,61.9,29.89,SW,225,0.0,0.0,49,0.00,,SKC,0.00,VWS V14.01,2013-09-03 15:40:00,
2013-09-03 08:46:00,84.0,62.8,29.89,SW,225,0.0,0.0,49,0.00,,SKC,0.00,VWS V14.01,2013-09-03 15:46:00,
2013-09-03 08:52:00,85.0,62.5,29.89,SW,225,0.0,0.0,47,0.00,,SKC,0.00,VWS V14.01,2013-09-03 15:52:00,
2013-09-03 08:57:00,85.0,62.5,29.89,SW,225,0.0,0.0,47,0.00,,SKC,0.00,VWS V14.01,2013-09-03 15:57:00,
2013-09-03 09:02:00,86.0,62.8,29.90,SW,225,0.0,0.0,46,0.00,,SKC,0.00,VWS V14.01,2013-09-03 16:02:00,
2013-09-03 09:07:00,86.0,62.2,29.89,SW,225,0.0,0.0,45,0.00,,SKC,0.00,VWS V14.01,2013-09-03 16:07:00,
2013-09-03 09:12:00,86.0,62.8,29.89,SW,225,0.0,0.0,46,0.00,,SKC,0.00,VWS V14.01,2013-09-03 16:12:00,
2013-09-03 09:18:00,87.0,62.5,29.90,SW,225,0.0,0.0,44,0.00,,SKC,0.00,VWS V14.01,2013-09-03 16:18:00,
2013-09-03 09:24:00,87.0,62.5,29.90,SW,225,0.0,0.0,44,0.00,,SKC,0.00,VWS V14.01,2013-09-03 16:24:00,
2013-09-03 09:30:00,88.0,62.0,29.90,SW,225,0.0,0.0,42,0.00,,SKC,0.00,VWS V14.01,2013-09-03 16:30:00,
2013-09-03 09:35:00,88.0,62.0,29.90,SW,225,0.0,0.0,42,0.00,,SKC,0.00,VWS V14.01,2013-09-03 16:35:00,
2013-09-03 09:41:00,89.0,62.3,29.90,SW,225,0.0,0.0,41,0.00,,SKC,0.00,VWS V14.01,2013-09-03 16:41:00,
2013-09-03 09:46:00,90.0,62.5,29.90,SW,225,0.0,0.0,40,0.00,,SKC,0.00,VWS V14.01,2013-09-03 16:46:00,
2013-09-03 09:52:00,90.0,63.2,29.90,SW,225,0.0,0.0,41,0.00,,SKC,0.00,VWS V14.01,2013-09-03 16:52:00,
2013-09-03 09:58:00,89.0,61.6,29.90,SW,225,0.0,0.0,40,0.00,,SKC,0.00,VWS V14.01,2013-09-03 16:58:00,
2013-09-03 10:03:00,90.0,62.5,29.91,SW,225,0.0,0.0,40,0.00,,SKC,0.00,VWS V14.01,2013-09-03 17:03:00,
2013-09-03 10:09:00,90.0,61.7,29.90,SW,225,0.0,0.0,39,0.00,,SKC,0.00,VWS V14.01,2013-09-03 17:09:00,
2013-09-03 10:15:00,91.0,61.9,29.90,SW,225,0.0,0.0,38,0.00,,SKC,0.00,VWS V14.01,2013-09-03 17:15:00,
2013-09-03 10:20:00,92.0,62.0,29.91,SW,225,0.0,0.0,37,0.00,,SKC,0.00,VWS V14.01,2013-09-03 17:20:00,
2013-09-03 10:26:00,92.0,61.2,29.90,SW,225,0.0,0.0,36,0.00,,SKC,0.00,VWS V14.01,2013-09-03 17:26:00,
2013-09-03 10:32:00,93.0,62.1,29.91,SW,225,0.0,0.0,36,0.00,,SKC,0.00,VWS V14.01,2013-09-03 17:32:00,
2013-09-03 10:38:00,94.0,61.4,29.90,SW,225,0.0,0.0,34,0.00,,SKC,0.00,VWS V14.01,2013-09-03 17:38:00,
2013-09-03 10:43:00,95.0,62.3,29.91,SW,225,0.0,0.0,34,0.00,,SKC,0.00,VWS V14.01,2013-09-03 17:43:00,
2013-09-03 10:49:00,96.0,62.3,29.90,SW,225,0.0,0.0,33,0.00,,SKC,0.00,VWS V14.01,2013-09-03 17:49:00,
2013-09-03 10:55:00,97.0,61.4,29.90,SW,225,0.0,0.0,31,0.00,,SKC,0.00,VWS V14.01,2013-09-03 17:55:00,
2013-09-03 11:00:00,96.0,59.6,29.90,SW,225,0.0,0.0,30,0.00,,SKC,0.00,VWS V14.01,2013-09-03 18:00:00,
2013-09-03 11:05:00,94.0,58.8,29.90,SW,225,0.0,0.0,31,0.00,,SKC,0.00,VWS V14.01,2013-09-03 18:05:00,
2013-09-03 11:10:00,95.0,59.7,29.90,SW,225,0.0,0.0,31,0.00,,SKC,0.00,VWS V14.01,2013-09-03 18:10:00,
2013-09-03 11:15:00,96.0,59.6,29.90,SW,225,0.0,0.0,30,0.00,,SKC,0.00,VWS V14.01,2013-09-03 18:15:00,
2013-09-03 11:21:00,97.0,60.5,29.90,SW,225,0.0,0.0,30,0.00,,SKC,0.00,VWS V14.01,2013-09-03 18:21:00,
2013-09-03 11:27:00,97.0,59.5,29.90,SW,225,0.0,0.0,29,0.00,,SKC,0.00,VWS V14.01,2013-09-03 18:27:00,
2013-09-03 11:32:00,98.0,59.4,29.90,SW,225,0.0,0.0,28,0.00,,SKC,0.00,VWS V14.01,2013-09-03 18:32:00,
2013-09-03 11:37:00,98.0,60.4,29.89,SW,225,0.0,0.0,29,0.00,,SKC,0.00,VWS V14.01,2013-09-03 18:37:00,
2013-09-03 11:42:00,97.0,59.5,29.89,SW,225,0.0,0.0,29,0.00,,SKC,0.00,VWS V14.01,2013-09-03 18:42:00,
2013-09-03 11:47:00,98.0,59.4,29.89,SW,225,0.0,0.0,28,0.00,,SKC,0.00,VWS V14.01,2013-09-03 18:47:00,
2013-09-03 11:52:00,98.0,58.3,29.89,SW,225,0.0,0.0,27,0.00,,SKC,0.00,VWS V14.01,2013-09-03 18:52:00,
2013-09-03 11:58:00,99.0,59.2,29.89,SW,225,0.0,0.0,27,0.00,,SKC,0.00,VWS V14.01,2013-09-03 18:58:00,
2013-09-03 12:04:00,101.0,58.7,29.89,SW,225,0.0,0.0,25,0.00,,SKC,0.00,VWS V14.01,2013-09-03 19:04:00,
2013-09-03 12:09:00,102.0,59.6,29.88,SW,225,0.0,0.0,25,0.00,,SKC,0.00,VWS V14.01,2013-09-03 19:09:00,
2013-09-03 12:15:00,102.0,59.6,29.88,SW,225,0.0,0.0,25,0.00,,SKC,0.00,VWS V14.01,2013-09-03 19:15:00,
2013-09-03 12:20:00,101.0,57.6,29.88,SW,225,0.0,0.0,24,0.00,,SKC,0.00,VWS V14.01,2013-09-03 19:20:00,
2013-09-03 12:25:00,98.0,52.7,29.88,SW,225,0.0,0.0,22,0.00,,SKC,0.00,VWS V14.01,2013-09-03 19:25:00,
2013-09-03 12:30:00,98.0,53.9,29.87,SW,225,0.0,0.0,23,0.00,,SKC,0.00,VWS V14.01,2013-09-03 19:30:00,
2013-09-03 12:35:00,98.0,53.9,29.87,SW,225,0.0,0.0,23,0.00,,SKC,0.00,VWS V14.01,2013-09-03 19:35:00,
2013-09-03 12:40:00,98.0,53.9,29.87,SW,225,0.0,0.0,23,0.00,,SKC,0.00,VWS V14.01,2013-09-03 19:40:00,
2013-09-03 12:46:00,98.0,52.7,29.87,SW,225,0.0,0.0,22,0.00,,SKC,0.00,VWS V14.01,2013-09-03 19:46:00,
2013-09-03 12:51:00,99.0,52.3,29.87,SW,225,0.0,0.0,21,0.00,,SKC,0.00,VWS V14.01,2013-09-03 19:51:00,
2013-09-03 12:56:00,99.0,52.3,29.86,SW,225,0.0,0.0,21,0.00,,SKC,0.00,VWS V14.01,2013-09-03 19:56:00,
2013-09-03 13:02:00,99.0,52.3,29.86,SW,225,0.0,0.0,21,0.00,,SKC,0.00,VWS V14.01,2013-09-03 20:02:00,
2013-09-03 13:07:00,99.0,52.3,29.86,SW,225,0.0,0.0,21,0.00,,SKC,0.00,VWS V14.01,2013-09-03 20:07:00,
2013-09-03 13:13:00,98.0,53.9,29.85,SW,225,0.0,0.0,23,0.00,,SKC,0.00,VWS V14.01,2013-09-03 20:13:00,
2013-09-03 13:18:00,97.0,53.1,29.85,SW,225,0.0,0.0,23,0.00,,SKC,0.00,VWS V14.01,2013-09-03 20:18:00,
2013-09-03 13:23:00,97.0,49.3,29.85,SW,225,0.0,0.0,20,0.00,,SKC,0.00,VWS V14.01,2013-09-03 20:23:00,
2013-09-03 13:28:00,96.0,51.1,29.85,SW,225,0.0,0.0,22,0.00,,SKC,0.00,VWS V14.01,2013-09-03 20:28:00,
2013-09-03 13:33:00,96.0,51.1,29.84,SW,225,0.0,0.0,22,0.00,,SKC,0.00,VWS V14.01,2013-09-03 20:33:00,
2013-09-03 13:38:00,96.0,52.3,29.84,SW,225,0.0,0.0,23,0.00,,SKC,0.00,VWS V14.01,2013-09-03 20:38:00,
2013-09-03 13:43:00,96.0,53.4,29.84,SW,225,0.0,0.0,24,0.00,,SKC,0.00,VWS V14.01,2013-09-03 20:43:00,
2013-09-03 13:49:00,95.0,53.7,29.84,SW,225,0.0,0.0,25,0.00,,SKC,0.00,VWS V14.01,2013-09-03 20:49:00,
2013-09-03 13:55:00,95.0,52.6,29.84,SW,225,0.0,0.0,24,0.00,,SKC,0.00,VWS V14.01,2013-09-03 20:55:00,
2013-09-03 14:00:00,95.0,53.7,29.84,SW,225,0.0,0.0,25,0.00,,SKC,0.00,VWS V14.01,2013-09-03 21:00:00,
2013-09-03 14:05:00,94.0,55.0,29.84,SW,225,0.0,0.0,27,0.00,,SKC,0.00,VWS V14.01,2013-09-03 21:05:00,
2013-09-03 14:10:00,93.0,54.1,29.84,SW,225,0.0,0.0,27,0.00,,SKC,0.00,VWS V14.01,2013-09-03 21:10:00,
2013-09-03 14:15:00,93.0,54.1,29.84,SW,225,0.0,0.0,27,0.00,,SKC,0.00,VWS V14.01,2013-09-03 21:15:00,
2013-09-03 14:20:00,92.0,55.2,29.85,SW,225,0.0,0.0,29,0.00,,SKC,0.00,VWS V14.01,2013-09-03 21:20:00,
2013-09-03 14:25:00,92.0,57.1,29.85,SW,225,0.0,0.0,31,0.00,,SKC,0.00,VWS V14.01,2013-09-03 21:25:00,
2013-09-03 14:30:00,92.0,56.2,29.85,SW,225,0.0,0.0,30,0.00,,SKC,0.00,VWS V14.01,2013-09-03 21:30:00,
2013-09-03 14:35:00,92.0,57.1,29.86,SW,225,0.0,0.0,31,0.00,,SKC,0.00,VWS V14.01,2013-09-03 21:35:00,
2013-09-03 14:40:00,92.0,57.9,29.86,SW,225,0.0,0.0,32,0.00,,SKC,0.00,VWS V14.01,2013-09-03 21:40:00,
2013-09-03 14:45:00,92.0,57.9,29.86,SW,225,0.0,0.0,32,0.00,,SKC,0.00,VWS V14.01,2013-09-03 21:45:00,
2013-09-03 14:50:00,93.0,57.9,29.86,SW,225,0.0,0.0,31,0.00,,SKC,0.00,VWS V14.01,2013-09-03 21:50:00,
2013-09-03 14:56:00,93.0,57.9,29.86,SW,225,0.0,0.0,31,0.00,,SKC,0.00,VWS V14.01,2013-09-03 21:56:00,
2013-09-03 15:01:00,93.0,59.7,29.86,SW,225,0.0,0.0,33,0.00,,SKC,0.00,VWS V14.01,2013-09-03 22:01:00,
2013-09-03 15:07:00,91.0,59.6,29.85,SW,225,0.0,0.0,35,0.00,,SKC,0.00,VWS V14.01,2013-09-03 22:07:00,
2013-09-03 15:12:00,90.0,60.3,29.85,SW,225,0.0,0.0,37,0.00,,SKC,0.00,VWS V14.01,2013-09-03 22:12:00,
2013-09-03 15:17:00,90.0,60.3,29.85,SW,225,0.0,0.0,37,0.00,,SKC,0.00,VWS V14.01,2013-09-03 22:17:00,
2013-09-03 15:22:00,89.0,60.1,29.85,SW,225,0.0,0.0,38,0.00,,SKC,0.00,VWS V14.01,2013-09-03 22:22:00,
2013-09-03 15:27:00,90.0,61.0,29.85,SW,225,0.0,0.0,38,0.00,,SKC,0.00,VWS V14.01,2013-09-03 22:27:00,
2013-09-03 15:32:00,90.0,60.3,29.85,SW,225,0.0,0.0,37,0.00,,SKC,0.00,VWS V14.01,2013-09-03 22:32:00,
2013-09-03 15:37:00,90.0,60.3,29.85,SW,225,0.0,0.0,37,0.00,,SKC,0.00,VWS V14.01,2013-09-03 22:37:00,
2013-09-03 15:43:00,90.0,61.0,29.85,SW,225,0.0,0.0,38,0.00,,SKC,0.00,VWS V14.01,2013-09-03 22:43:00,
2013-09-03 15:49:00,90.0,61.0,29.85,SW,225,0.0,0.0,38,0.00,,SKC,0.00,VWS V14.01,2013-09-03 22:49:00,
2013-09-03 15:55:00,89.0,60.1,29.85,SW,225,0.0,0.0,38,0.00,,SKC,0.00,VWS V14.01,2013-09-03 22:55:00,
2013-09-03 16:00:00,89.0,60.8,29.85,SW,225,0.0,0.0,39,0.00,,SKC,0.00,VWS V14.01,2013-09-03 23:00:00,
2013-09-03 16:05:00,89.0,60.8,29.85,SW,225,0.0,0.0,39,0.00,,SKC,0.00,VWS V14.01,2013-09-03 23:05:00,
2013-09-03 16:10:00,89.0,60.8,29.85,SW,225,0.0,0.0,39,0.00,,SKC,0.00,VWS V14.01,2013-09-03 23:10:00,
2013-09-03 16:15:00,89.0,60.8,29.85,SW,225,0.0,0.0,39,0.00,,SKC,0.00,VWS V14.01,2013-09-03 23:15:00,
2013-09-03 16:20:00,89.0,60.1,29.85,SW,225,0.0,0.0,38,0.00,,SKC,0.00,VWS V14.01,2013-09-03 23:20:00,
2013-09-03 16:25:00,89.0,60.8,29.85,SW,225,0.0,0.0,39,0.00,,SKC,0.00,VWS V14.01,2013-09-03 23:25:00,
2013-09-03 16:30:00,89.0,60.1,29.85,SW,225,0.0,0.0,38,0.00,,SKC,0.00,VWS V14.01,2013-09-03 23:30:00,
2013-09-03 16:35:00,89.0,59.4,29.85,SW,225,0.0,0.0,37,0.00,,SKC,0.00,VWS V14.01,2013-09-03 23:35:00,
2013-09-03 16:40:00,89.0,58.6,29.85,SW,225,0.0,0.0,36,0.00,,SKC,0.00,VWS V14.01,2013-09-03 23:40:00,
2013-09-03 16:45:00,89.0,58.6,29.85,SW,225,0.0,0.0,36,0.00,,SKC,0.00,VWS V14.01,2013-09-03 23:45:00,
2013-09-03 16:51:00,89.0,60.1,29.85,SW,225,0.0,0.0,38,0.00,,SKC,0.00,VWS V14.01,2013-09-03 23:51:00,
2013-09-03 16:56:00,88.0,58.5,29.84,SW,225,0.0,0.0,37,0.00,,SKC,0.00,VWS V14.01,2013-09-03 23:56:00,
2013-09-03 17:01:00,88.0,60.7,29.84,SW,225,0.0,0.0,40,0.00,,SKC,0.00,VWS V14.01,2013-09-04 00:01:00,
2013-09-03 17:07:00,87.0,60.5,29.84,SW,225,0.0,0.0,41,0.00,,SKC,0.00,VWS V14.01,2013-09-04 00:07:00,
2013-09-03 17:13:00,87.0,62.5,29.84,SW,225,0.0,0.0,44,0.00,,SKC,0.00,VWS V14.01,2013-09-04 00:13:00,
2013-09-03 17:18:00,87.0,62.5,29.84,SW,225,0.0,0.0,44,0.00,,SKC,0.00,VWS V14.01,2013-09-04 00:18:00,
2013-09-03 17:23:00,87.0,61.8,29.84,SW,225,0.0,0.0,43,0.00,,SKC,0.00,VWS V14.01,2013-09-04 00:23:00,
2013-09-03 17:28:00,87.0,61.8,29.84,SW,225,0.0,0.0,43,0.00,,SKC,0.00,VWS V14.01,2013-09-04 00:28:00,
2013-09-03 17:33:00,88.0,61.4,29.84,SW,225,0.0,0.0,41,0.00,,SKC,0.00,VWS V14.01,2013-09-04 00:33:00,
2013-09-03 17:38:00,88.0,60.0,29.84,SW,225,0.0,0.0,39,0.00,,SKC,0.00,VWS V14.01,2013-09-04 00:38:00,
2013-09-03 17:43:00,88.0,59.2,29.84,SW,225,0.0,0.0,38,0.00,,SKC,0.00,VWS V14.01,2013-09-04 00:43:00,
2013-09-03 17:48:00,88.0,59.2,29.84,SW,225,0.0,0.0,38,0.00,,SKC,0.00,VWS V14.01,2013-09-04 00:48:00,
2013-09-03 17:53:00,88.0,58.5,29.84,SW,225,0.0,0.0,37,0.00,,SKC,0.00,VWS V14.01,2013-09-04 00:53:00,
2013-09-03 17:58:00,88.0,58.5,29.84,SW,225,0.0,0.0,37,0.00,,SKC,0.00,VWS V14.01,2013-09-04 00:58:00,
2013-09-03 18:03:00,88.0,58.5,29.84,SW,225,0.0,0.0,37,0.00,,SKC,0.00,VWS V14.01,2013-09-04 01:03:00,
2013-09-03 18:08:00,88.0,59.2,29.83,SW,225,0.0,0.0,38,0.00,,SKC,0.00,VWS V14.01,2013-09-04 01:08:00,
2013-09-03 18:13:00,87.0,58.3,29.83,SW,225,0.0,0.0,38,0.00,,SKC,0.00,VWS V14.01,2013-09-04 01:13:00,
2013-09-03 18:18:00,87.0,58.3,29.83,SW,225,0.0,0.0,38,0.00,,SKC,0.00,VWS V14.01,2013-09-04 01:18:00,
2013-09-03 18:23:00,87.0,58.3,29.83,SW,225,0.0,0.0,38,0.00,,SKC,0.00,VWS V14.01,2013-09-04 01:23:00,
2013-09-03 18:28:00,87.0,58.3,29.84,SW,225,0.0,0.0,38,0.00,,SKC,0.00,VWS V14.01,2013-09-04 01:28:00,
2013-09-03 18:33:00,87.0,60.5,29.84,SW,225,0.0,0.0,41,0.00,,SKC,0.00,VWS V14.01,2013-09-04 01:33:00,
2013-09-03 18:38:00,86.0,60.9,29.84,SW,225,0.0,0.0,43,0.00,,SKC,0.00,VWS V14.01,2013-09-04 01:38:00,
2013-09-03 18:43:00,85.0,61.9,29.84,SW,225,0.0,0.0,46,0.00,,SKC,0.00,VWS V14.01,2013-09-04 01:43:00,
2013-09-03 18:48:00,84.0,61.6,29.84,SW,225,0.0,0.0,47,0.00,,SKC,0.00,VWS V14.01,2013-09-04 01:48:00,
2013-09-03 18:53:00,84.0,61.6,29.84,SW,225,0.0,0.0,47,0.00,,SKC,0.00,VWS V14.01,2013-09-04 01:53:00,
2013-09-03 18:58:00,83.0,60.7,29.85,SW,225,0.0,0.0,47,0.00,,SKC,0.00,VWS V14.01,2013-09-04 01:58:00,
2013-09-03 19:03:00,83.0,60.7,29.85,SW,225,0.0,0.0,47,0.00,,SKC,0.00,VWS V14.01,2013-09-04 02:03:00,
2013-09-03 19:09:00,83.0,60.7,29.85,SW,225,0.0,0.0,47,0.00,,SKC,0.00,VWS V14.01,2013-09-04 02:09:00,
2013-09-03 19:14:00,83.0,60.7,29.85,SW,225,0.0,0.0,47,0.00,,SKC,0.00,VWS V14.01,2013-09-04 02:14:00,
2013-09-03 19:19:00,83.0,60.7,29.85,SW,225,0.0,0.0,47,0.00,,SKC,0.00,VWS V14.01,2013-09-04 02:19:00,
2013-09-03 19:24:00,83.0,60.7,29.84,SW,225,0.0,0.0,47,0.00,,SKC,0.00,VWS V14.01,2013-09-04 02:24:00,
2013-09-03 19:29:00,83.0,60.7,29.85,SW,225,0.0,0.0,47,0.00,,SKC,0.00,VWS V14.01,2013-09-04 02:29:00,
2013-09-03 19:34:00,83.0,60.7,29.85,SW,225,0.0,0.0,47,0.00,,SKC,0.00,VWS V14.01,2013-09-04 02:34:00,
2013-09-03 19:39:00,83.0,61.3,29.85,SW,225,0.0,0.0,48,0.00,,SKC,0.00,VWS V14.01,2013-09-04 02:39:00,
2013-09-03 19:44:00,83.0,60.7,29.85,SW,225,0.0,0.0,47,0.00,,SKC,0.00,VWS V14.01,2013-09-04 02:44:00,
2013-09-03 19:49:00,83.0,60.7,29.85,SW,225,0.0,0.0,47,0.00,,SKC,0.00,VWS V14.01,2013-09-04 02:49:00,
2013-09-03 19:54:00,83.0,60.7,29.85,SW,225,0.0,0.0,47,0.00,,SKC,0.00,VWS V14.01,2013-09-04 02:54:00,
2013-09-03 19:59:00,83.0,60.7,29.86,SW,225,0.0,0.0,47,0.00,,SKC,0.00,VWS V14.01,2013-09-04 02:59:00,
2013-09-03 20:04:00,83.0,60.1,29.86,SW,225,0.0,0.0,46,0.00,,SKC,0.00,VWS V14.01,2013-09-04 03:04:00,
2013-09-03 20:09:00,83.0,60.1,29.86,SW,225,0.0,0.0,46,0.00,,SKC,0.00,VWS V14.01,2013-09-04 03:09:00,
2013-09-03 20:14:00,83.0,60.1,29.86,SW,225,0.0,0.0,46,0.00,,SKC,0.00,VWS V14.01,2013-09-04 03:14:00,
2013-09-03 20:19:00,83.0,60.7,29.87,SW,225,0.0,0.0,47,0.00,,SKC,0.00,VWS V14.01,2013-09-04 03:19:00,
2013-09-03 20:24:00,83.0,60.7,29.87,SW,225,0.0,0.0,47,0.00,,SKC,0.00,VWS V14.01,2013-09-04 03:24:00,
2013-09-03 20:29:00,83.0,60.7,29.87,SW,225,0.0,0.0,47,0.00,,SKC,0.00,VWS V14.01,2013-09-04 03:29:00,
2013-09-03 20:34:00,83.0,60.7,29.87,SW,225,0.0,0.0,47,0.00,,SKC,0.00,VWS V14.01,2013-09-04 03:34:00,
2013-09-03 20:39:00,82.0,60.4,29.88,SW,225,0.0,0.0,48,0.00,,SKC,0.00,VWS V14.01,2013-09-04 03:39:00,
2013-09-03 20:44:00,82.0,60.4,29.88,SW,225,0.0,0.0,48,0.00,,SKC,0.00,VWS V14.01,2013-09-04 03:44:00,
2013-09-03 20:49:00,82.0,60.4,29.88,SW,225,0.0,0.0,48,0.00,,SKC,0.00,VWS V14.01,2013-09-04 03:49:00,
2013-09-03 20:54:00,82.0,60.4,29.88,SW,225,0.0,0.0,48,0.00,,SKC,0.00,VWS V14.01,2013-09-04 03:54:00,
2013-09-03 20:59:00,82.0,60.4,29.88,SW,225,0.0,0.0,48,0.00,,SKC,0.00,VWS V14.01,2013-09-04 03:59:00,
2013-09-03 21:01:00,82.0,60.4,29.89,SW,225,0.0,0.0,48,0.00,,SKC,0.00,VWS V14.01,2013-09-04 04:01:00,
2013-09-03 21:02:00,82.0,60.4,29.89,SW,225,0.0,0.0,48,0.00,,SKC,0.00,VWS V14.01,2013-09-04 04:02:00,
2013-09-03 21:07:00,82.0,60.4,29.89,SW,225,0.0,0.0,48,0.00,,SKC,0.00,VWS V14.01,2013-09-04 04:07:00,
2013-09-03 21:11:00,82.0,61.0,29.90,SW,225,0.0,0.0,49,0.00,,SKC,0.00,VWS V14.01,2013-09-04 04:11:00,
2013-09-03 21:17:00,82.0,61.5,29.91,SW,225,0.0,0.0,50,0.00,,SKC,0.00,VWS V14.01,2013-09-04 04:17:00,
2013-09-03 21:22:00,82.0,61.5,29.91,SW,225,0.0,0.0,50,0.00,,SKC,0.00,VWS V14.01,2013-09-04 04:22:00,
2013-09-03 21:27:00,82.0,61.5,29.91,SW,225,0.0,0.0,50,0.00,,SKC,0.00,VWS V14.01,2013-09-04 04:27:00,
2013-09-03 21:32:00,82.0,61.0,29.91,SW,225,0.0,0.0,49,0.00,,SKC,0.00,VWS V14.01,2013-09-04 04:32:00,
2013-09-03 21:37:00,82.0,61.0,29.91,SW,225,0.0,0.0,49,0.00,,SKC,0.00,VWS V14.01,2013-09-04 04:37:00,
2013-09-03 21:42:00,82.0,60.4,29.91,SW,225,0.0,0.0,48,0.00,,SKC,0.00,VWS V14.01,2013-09-04 04:42:00,
2013-09-03 21:47:00,82.0,60.4,29.90,SW,225,0.0,0.0,48,0.00,,SKC,0.00,VWS V14.01,2013-09-04 04:47:00,
2013-09-03 21:52:00,83.0,61.3,29.90,SW,225,0.0,0.0,48,0.00,,SKC,0.00,VWS V14.01,2013-09-04 04:52:00,
2013-09-03 21:57:00,83.0,60.7,29.90,SW,225,0.0,0.0,47,0.00,,SKC,0.00,VWS V14.01,2013-09-04 04:57:00,
2013-09-03 21:59:00,83.0,60.7,29.91,SW,225,0.0,0.0,47,0.00,,SKC,0.00,VWS V14.01,2013-09-04 04:59:00,
2013-09-03 22:02:00,83.0,60.7,29.91,SW,225,0.0,0.0,47,0.00,,SKC,0.00,VWS V14.01,2013-09-04 05:02:00,
2013-09-03 22:07:00,84.0,59.8,29.90,SW,225,0.0,0.0,44,0.00,,SKC,0.00,VWS V14.01,2013-09-04 05:07:00,
2013-09-03 22:12:00,84.0,59.1,29.90,SW,225,0.0,0.0,43,0.00,,SKC,0.00,VWS V14.01,2013-09-04 05:12:00,
2013-09-03 22:17:00,85.0,60.0,29.90,SW,225,0.0,0.0,43,0.00,,SKC,0.00,VWS V14.01,2013-09-04 05:17:00,
2013-09-03 22:22:00,85.0,58.7,29.90,SW,225,0.0,0.0,41,0.00,,SKC,0.00,VWS V14.01,2013-09-04 05:22:00,
2013-09-03 22:27:00,85.0,58.0,29.90,SW,225,0.0,0.0,40,0.00,,SKC,0.00,VWS V14.01,2013-09-04 05:27:00,
2013-09-03 22:32:00,85.0,58.0,29.91,SW,225,0.0,0.0,40,0.00,,SKC,0.00,VWS V14.01,2013-09-04 05:32:00,
2013-09-03 22:37:00,85.0,57.3,29.91,SW,225,0.0,0.0,39,0.00,,SKC,0.00,VWS V14.01,2013-09-04 05:37:00,
2013-09-03 22:42:00,85.0,57.3,29.91,SW,225,0.0,0.0,39,0.00,,SKC,0.00,VWS V14.01,2013-09-04 05:42:00,
2013-09-03 22:48:00,86.0,58.2,29.91,SW,225,0.0,0.0,39,0.00,,SKC,0.00,VWS V14.01,2013-09-04 05:48:00,
2013-09-03 22:53:00,86.0,57.5,29.91,SW,225,0.0,0.0,38,0.00,,SKC,0.00,VWS V14.01,2013-09-04 05:53:00,
2013-09-03 22:58:00,86.0,57.5,29.91,SW,225,0.0,0.0,38,0.00,,SKC,0.00,VWS V14.01,2013-09-04 05:58:00,
2013-09-03 23:03:00,86.0,57.5,29.91,SW,225,0.0,0.0,38,0.00,,SKC,0.00,VWS V14.01,2013-09-04 06:03:00,
2013-09-03 23:08:00,85.0,56.6,29.91,SW,225,0.0,0.0,38,0.00,,SKC,0.00,VWS V14.01,2013-09-04 06:08:00,
2013-09-03 23:13:00,85.0,57.3,29.90,SW,225,0.0,0.0,39,0.00,,SKC,0.00,VWS V14.01,2013-09-04 06:13:00,
2013-09-03 23:18:00,85.0,58.0,29.90,SW,225,0.0,0.0,40,0.00,,SKC,0.00,VWS V14.01,2013-09-04 06:18:00,
2013-09-03 23:23:00,85.0,58.0,29.90,SW,225,0.0,0.0,40,0.00,,SKC,0.00,VWS V14.01,2013-09-04 06:23:00,
2013-09-03 23:28:00,84.0,57.8,29.90,SW,225,0.0,0.0,41,0.00,,SKC,0.00,VWS V14.01,2013-09-04 06:28:00,
2013-09-03 23:33:00,84.0,59.1,29.90,SW,225,0.0,0.0,43,0.00,,SKC,0.00,VWS V14.01,2013-09-04 06:33:00,
2013-09-03 23:38:00,83.0,60.1,29.90,SW,225,0.0,0.0,46,0.00,,SKC,0.00,VWS V14.01,2013-09-04 06:38:00,
2013-09-03 23:43:00,82.0,61.0,29.90,SW,225,0.0,0.0,49,0.00,,SKC,0.00,VWS V14.01,2013-09-04 06:43:00,
2013-09-03 23:48:00,81.0,60.6,29.90,SW,225,0.0,0.0,50,0.00,,SKC,0.00,VWS V14.01,2013-09-04 06:48:00,
2013-09-03 23:53:00,80.0,60.3,29.90,SW,225,0.0,0.0,51,0.00,,SKC,0.00,VWS V14.01,2013-09-04 06:53:00,
2013-09-03 23:58:00,80.0,60.8,29.90,SW,225,0.0,0.0,52,0.00,,SKC,0.00,VWS V14.01,2013-09-04 06:58:00,